Location: Grisols
(45.0093°N, 3.1167°E)
Time: 10:46:24
(UTC+00:00)

NOSS 3-2 (C) - Pass Details

Date: 21 October 2019
Orbit: 818 x 1394 km, 63.4° (Epoch: 11 November)

Event Time Altitude Azimuth Distance (km) Brightness Sun altitude
Rises 17:57:16 0° 186° (S) 3,368 6.5 -12.0°
Reaches altitude 10° 17:59:49 10° 177° (S) 2,475 5.6 -12.5°
Maximum altitude 18:04:53 34° 114° (ESE) 1,460 4.0 -13.4°
Enters shadow 18:09:34 14° 56° (NE) 2,453 5.1 -14.2°
